Weather History for Menomonie, WI

Change the Weather History Date:

Thursday, September 12, 2013

  Actual Average (KEAU) Record (KEAU)
Temperature  
Mean Temperature 62 °F 62 °F  
Max Temperature 72 °F 73 °F 99 °F (1895)
Min Temperature 52 °F 51 °F 28 °F (1955)
Degree Days  
Heating Degree Days 3 5  
Month to date heating degree days 42  
Since 1 July heating degree days 81  
Cooling Degree Days 0 2  
Month to date cooling degree days 31  
Year to date cooling degree days 558  
Growing Degree Days 12 (Base 50)    
Moisture  
Dew Point 48 °F    
Average Humidity 62    
Maximum Humidity 91    
Minimum Humidity 33    
Precipitation  
Precipitation 0.00 in 0.13 in 3.74 in (1903)
Month to date precipitation 1.52  
Year to date precipitation 23.64  
Snow  
Snow 0.00 in 0.00 in 0.00 in ()
Month to date snowfall 0.0  
Since 1 July snowfall 0.0  
Since 1 September snowfall 0.0  
Snow Depth -    
Sea Level Pressure  
Sea Level Pressure 30.14 in    
Wind  
Wind Speed 9 mph (NW)    
Max Wind Speed 21 mph    
Max Gust Speed 25 mph    
Visibility 10 miles    
Events      
T = Trace of Precipitation, MM = Missing Value Source: NWS Daily Summary

Daily Weather History Graph

Daily Weather History Graph

Search for Another Location

Airport:

Trip Planner

Search our weather history database for the weather conditions in past years. The results will help you decide how hot, cold, wet, or windy it might be!

Date:

Astronomy

Sep. 12, 2013 Rise Set
Actual Time 6:42 AM CDT 7:23 PM CDT
Civil Twilight 6:13 AM CDT 7:52 PM CDT
Nautical Twilight 5:38 AM CDT 8:27 PM CDT
Astronomical Twilight 5:01 AM CDT 9:04 PM CDT
Moon 2:27 PM CDT (9/12) No Moon Set
Length of Visible Light 13h 39m
Length of Day
12h 40m
Waxing Crescent, 50% of the Moon is Illuminated
Sep 12
Waxing Crescent
Sep 12
First Quarter
Sep 19
Full
Sep 26
Last Quarter
Oct 4
New

Hourly Weather History & Observations

Time (CDT) Temp. Dew Point Humidity Pressure Visibility Wind Dir Wind Speed Gust Speed Precip Events Conditions
12:15 AM 64.4 °F 50.5 °F 61% 30.01 in 10.0 mi West 4.6 mph - N/A   Clear
12:35 AM 65.5 °F 50.9 °F 59% 30.02 in 10.0 mi WNW 5.8 mph - N/A   Clear
12:55 AM 66.6 °F 51.1 °F 57% 30.02 in 10.0 mi WNW 8.1 mph - N/A   Clear
1:15 AM 65.3 °F 51.4 °F 61% 30.02 in 10.0 mi WNW 6.9 mph - N/A   Clear
1:35 AM 63.3 °F 51.8 °F 66% 30.03 in 10.0 mi West 8.1 mph - N/A   Clear
1:55 AM 63.9 °F 52.0 °F 65% 30.03 in 10.0 mi WNW 8.1 mph - N/A   Clear
2:15 AM 63.1 °F 52.0 °F 67% 30.04 in 10.0 mi WNW 8.1 mph - N/A   Clear
2:35 AM 62.2 °F 52.2 °F 70% 30.04 in 10.0 mi WNW 8.1 mph - N/A   Clear
2:55 AM 61.9 °F 52.9 °F 72% 30.05 in 10.0 mi WNW 9.2 mph 16.1 mph N/A   Clear
3:15 AM 61.0 °F 53.6 °F 77% 30.06 in 10.0 mi NW 12.7 mph 17.3 mph N/A   Clear
3:35 AM 60.1 °F 54.0 °F 80% 30.07 in 10.0 mi NW 10.4 mph - N/A   Clear
3:55 AM 59.2 °F 54.3 °F 84% 30.07 in 10.0 mi NW 8.1 mph - N/A   Scattered Clouds
4:15 AM 58.5 °F 53.8 °F 84% 30.08 in 10.0 mi NNW 10.4 mph - N/A   Clear
4:35 AM 58.1 °F 52.7 °F 82% 30.08 in 10.0 mi NW 8.1 mph - N/A   Clear
4:55 AM 57.0 °F 52.2 °F 84% 30.09 in 10.0 mi NNW 9.2 mph - N/A   Clear
5:15 AM 57.2 °F 52.2 °F 83% 30.10 in 10.0 mi NW 6.9 mph - N/A   Clear
5:35 AM 56.5 °F 51.8 °F 84% 30.10 in 10.0 mi NW 6.9 mph - N/A   Clear
5:55 AM 55.4 °F 51.1 °F 85% 30.11 in 10.0 mi WNW 5.8 mph - N/A   Clear
6:15 AM 54.7 °F 50.9 °F 87% 30.11 in 10.0 mi West 4.6 mph - N/A   Clear
6:35 AM 54.0 °F 50.9 °F 89% 30.12 in 10.0 mi WNW 5.8 mph - N/A   Clear
6:55 AM 53.6 °F 50.9 °F 91% 30.12 in 10.0 mi WNW 5.8 mph - N/A   Clear
7:15 AM 54.0 °F 51.1 °F 90% 30.13 in 10.0 mi WNW 6.9 mph - N/A   Clear
7:35 AM 54.5 °F 51.1 °F 88% 30.13 in 10.0 mi NW 8.1 mph - N/A   Scattered Clouds
7:55 AM 55.0 °F 51.1 °F 86% 30.14 in 10.0 mi NW 11.5 mph - N/A   Mostly Cloudy
8:15 AM 55.4 °F 50.7 °F 84% 30.15 in 10.0 mi NNW 10.4 mph - N/A   Mostly Cloudy
8:35 AM 55.4 °F 50.5 °F 84% 30.15 in 10.0 mi NW 11.5 mph - N/A   Mostly Cloudy
8:55 AM 56.1 °F 50.4 °F 81% 30.16 in 10.0 mi NNW 11.5 mph - N/A   Mostly Cloudy
9:15 AM 57.9 °F 50.4 °F 76% 30.17 in 10.0 mi NW 9.2 mph - N/A   Mostly Cloudy
9:35 AM 59.9 °F 50.7 °F 72% 30.18 in 10.0 mi NW 10.4 mph - N/A   Mostly Cloudy
9:55 AM 60.8 °F 50.4 °F 68% 30.18 in 10.0 mi NNW 9.2 mph - N/A   Mostly Cloudy
10:15 AM 61.2 °F 50.0 °F 67% 30.18 in 10.0 mi North 10.4 mph - N/A   Scattered Clouds
10:35 AM 63.7 °F 50.2 °F 61% 30.18 in 10.0 mi NW 6.9 mph - N/A   Scattered Clouds
10:55 AM 64.2 °F 50.0 °F 60% 30.18 in 10.0 mi NW 10.4 mph - N/A   Scattered Clouds
11:15 AM 66.0 °F 49.1 °F 54% 30.18 in 10.0 mi NW 9.2 mph 25.3 mph N/A   Scattered Clouds
11:35 AM 67.5 °F 48.6 °F 51% 30.18 in 10.0 mi North 17.3 mph - N/A   Scattered Clouds
11:55 AM 66.9 °F 48.7 °F 52% 30.18 in 10.0 mi NNW 12.7 mph 18.4 mph N/A   Mostly Cloudy
12:15 PM 67.6 °F 47.5 °F 48% 30.18 in 10.0 mi NNW 15.0 mph 21.9 mph N/A   Mostly Cloudy
12:35 PM 69.3 °F 47.7 °F 46% 30.18 in 10.0 mi NW 17.3 mph 20.7 mph N/A   Scattered Clouds
12:55 PM 70.5 °F 46.0 °F 42% 30.17 in 10.0 mi NNW 15.0 mph 20.7 mph N/A   Scattered Clouds
1:15 PM 69.8 °F 45.7 °F 42% 30.17 in 10.0 mi NNW 20.7 mph 24.2 mph N/A   Scattered Clouds
1:35 PM 70.3 °F 45.1 °F 40% 30.17 in 10.0 mi NNW 16.1 mph 21.9 mph N/A   Scattered Clouds
1:55 PM 70.0 °F 45.5 °F 41% 30.17 in 10.0 mi NNW 17.3 mph 21.9 mph N/A   Scattered Clouds
2:15 PM 70.0 °F 45.0 °F 41% 30.17 in 10.0 mi NNW 16.1 mph 23.0 mph N/A   Scattered Clouds
2:35 PM 71.2 °F 43.7 °F 37% 30.17 in 10.0 mi NW 11.5 mph 21.9 mph N/A   Scattered Clouds
2:55 PM 71.4 °F 43.5 °F 37% 30.16 in 10.0 mi NW 17.3 mph 24.2 mph N/A   Scattered Clouds
3:15 PM 71.4 °F 41.9 °F 34% 30.16 in 10.0 mi NW 18.4 mph 25.3 mph N/A   Scattered Clouds
3:35 PM 72.3 °F 41.7 °F 33% 30.15 in 10.0 mi WNW 16.1 mph 23.0 mph N/A   Scattered Clouds
3:55 PM 70.0 °F 42.1 °F 36% 30.15 in 10.0 mi North 11.5 mph 19.6 mph N/A   Mostly Cloudy
4:15 PM 72.1 °F 41.9 °F 34% 30.15 in 10.0 mi North 17.3 mph 23.0 mph N/A   Mostly Cloudy
4:35 PM 68.5 °F 42.8 °F 39% 30.15 in 10.0 mi NNW 15.0 mph 19.6 mph N/A   Mostly Cloudy
4:55 PM 70.9 °F 42.6 °F 36% 30.15 in 10.0 mi NW 13.8 mph 20.7 mph N/A   Scattered Clouds
5:15 PM 70.9 °F 43.0 °F 37% 30.14 in 10.0 mi NNW 18.4 mph - N/A   Mostly Cloudy
5:35 PM 69.4 °F 43.9 °F 40% 30.15 in 10.0 mi NNW 13.8 mph 19.6 mph N/A   Scattered Clouds
5:55 PM 68.2 °F 43.7 °F 41% 30.16 in 10.0 mi NNW 11.5 mph 17.3 mph N/A   Clear
6:15 PM 68.0 °F 43.9 °F 42% 30.16 in 10.0 mi NNW 11.5 mph 17.3 mph N/A   Clear
6:35 PM 67.3 °F 43.2 °F 42% 30.16 in 10.0 mi NNW 10.4 mph - N/A   Clear
6:55 PM 66.2 °F 43.3 °F 44% 30.17 in 10.0 mi NNW 8.1 mph - N/A   Clear
7:15 PM 64.8 °F 43.7 °F 46% 30.17 in 10.0 mi NNW 9.2 mph - N/A   Clear
7:35 PM 63.0 °F 44.4 °F 51% 30.18 in 10.0 mi NNW 6.9 mph - N/A   Clear
7:55 PM 61.2 °F 44.6 °F 54% 30.18 in 10.0 mi NNW 5.8 mph - N/A   Clear
8:15 PM 60.3 °F 44.6 °F 56% 30.18 in 10.0 mi NNW 4.6 mph - N/A   Clear
8:35 PM 60.1 °F 44.6 °F 57% 30.19 in 10.0 mi NW 4.6 mph - N/A   Clear
8:55 PM 59.0 °F 45.0 °F 60% 30.20 in 10.0 mi NW 4.6 mph - N/A   Clear
9:15 PM 58.5 °F 45.5 °F 62% 30.20 in 10.0 mi NNW 4.6 mph - N/A   Clear
9:35 PM 56.1 °F 45.9 °F 68% 30.20 in 10.0 mi NNW 3.5 mph - N/A   Clear
9:55 PM 55.6 °F 45.7 °F 69% 30.20 in 10.0 mi NNW 3.5 mph - N/A   Clear
10:15 PM 54.3 °F 45.0 °F 71% 30.21 in 10.0 mi North 5.8 mph - N/A   Clear
10:35 PM 54.3 °F 45.0 °F 71% 30.22 in 10.0 mi North 4.6 mph - N/A   Clear
10:55 PM 55.4 °F 45.0 °F 68% 30.23 in 10.0 mi NNE 4.6 mph - N/A   Clear
11:15 PM 54.1 °F 45.1 °F 72% 30.24 in 10.0 mi ENE 4.6 mph - N/A   Clear
11:35 PM 52.9 °F 44.8 °F 74% 30.24 in 10.0 mi ENE 3.5 mph - N/A   Clear
11:55 PM 53.1 °F 44.2 °F 72% 30.24 in 10.0 mi NE 4.6 mph - N/A   Clear